Regional Weather Roundup
Issued by NWS

Home | Current Version | Previous Version | Text Only | Print | Product List | Glossary Off
Versions: 1 2 3 4 5 6 7 8 9 10 11 12 13 14 15 16 17 18 19 20 21 22 23 24 25 26 27 28 29 30 31 32 33 34 35 36 37 38 39 40 41 42 43 44 45 46 47 48 49 50

000
ASUS43 KDTX 270710
RWRMI
MICHIGAN HOURLY REGIONAL WEATHER ROUNDUP
NATIONAL WEATHER SERVICE DETROIT/PONTIAC MI
200 AM EST TUE JAN 27 2015

NOTE: "FAIR" INDICATES FEW OR NO CLOUDS BELOW 12,000 FEET WITH NO
SIGNIFICANT WEATHER AND/OR OBSTRUCTION TO VISIBILITY.

MIZ047>049-052>055-059>063-066>070-074>076-081>083-270800-
SOUTHEAST LOWER MICHIGAN

CITY           SKY/WX    TMP DP  RH WIND       PRES   REMARKS
ADRIAN         MOCLDY    15  11  83 CALM      29.97S
ALMA           MOCLDY    13  11  92 CALM      30.01R
ANN ARBOR      CLEAR     10   5  80 NE3       29.96F
BAD AXE        CLEAR      4   1  87 CALM      30.00S
CARO           CLEAR      7   4  89 CALM      30.00R
DETROIT CITY   CLEAR     16   9  74 N3        29.98S
DETROIT        PTCLDY    13   9  84 NW3       29.99R
FLINT          CLEAR      9   5  84 CALM      29.98S
GROSSE ILE     CLEAR     10   7  85 NW3       29.97S
HILLSDALE      CLOUDY    17  10  74 CALM      29.92S
HOWELL         CLEAR      8   6  92 CALM      29.95F

CITY           SKY/WX    TMP DP  RH WIND       PRES   REMARKS
JACKSON        CLOUDY    17  11  77 E5        29.95S WCI  10
LAMBERTVILLE   CLEAR     12   9  85 CALM      29.98R
LANSING        CLOUDY    15  10  80 NE3       29.98R
LAPEER         FAIR       8   6  93 CALM      29.98S
MASON          CLOUDY    15  10  81 CALM      29.96S
MT. CLEMENS    CLEAR     12   8  84 N5        29.96S WCI   4
PONTIAC        CLEAR      9   5  84 CALM      29.95S
PORT HOPE        N/A     19   6  57 E10       30.00S WCI   7
PORT HURON     MOCLDY     5   3  92 CALM      29.99S
TRI CITIES     PTCLDY    12   7  80 N7        30.02R WCI   1
TROY           FAIR      17  12  82 N3        30.00R
SAGINAW HB     CLEAR     12   9  85 N3        30.01S
$$
MIZ043>046-050>051-056>058-064>065-071>073-077>080-270800-
SOUTHWEST LOWER MICHIGAN

CITY           SKY/WX    TMP DP  RH WIND       PRES   REMARKS
BATTLE CREEK   CLOUDY    22   9  57 E6        29.94F WCI  14
BENTON HARBOR  CLOUDY    22  13  68 E5        29.95S WCI  16
BIG RAPIDS     CLOUDY    18  10  71 E3        29.98S
COLDWATER      CLOUDY    19  12  74 CALM      29.93S
FREMONT        CLOUDY    18   9  70 E5        29.99R WCI  11
HOLLAND        CLOUDY    22  11  62 E7        29.97S WCI  13
GRAND RAPIDS   PTCLDY    18  11  74 NE7       29.97S WCI   9
IONIA          CLOUDY    18  13  80 E6        29.97R WCI  10
KALAMAZOO      CLOUDY    21   9  59 E5        29.94S WCI  15
LUDINGTON      CLOUDY    21  11  67 E6        30.01S WCI  13
MARSHALL       CLOUDY    18  10  70 CALM      29.94S
MOUNT PLEASANT MOCLDY    14  10  82 N3        30.01R
MUSKEGON       CLOUDY    21  11  65 E7        29.99S WCI  12
SOUTH HAVEN    CLOUDY    23   9  55 E3        29.95S
$$
MIZ016>042-270800-
NORTHERN LOWER MICHIGAN

CITY           SKY/WX    TMP DP  RH WIND       PRES   REMARKS
ALPENA         CLOUDY    15  10  80 N5        30.06R WCI   8
BEAVER ISLAND  MOCLDY    19  15  82 CALM      30.07R
BELLAIRE       CLOUDY    19  11  71 N3        30.05S
CADILLAC       CLOUDY    16  10  79 NE5       29.96S WCI   8
CHARLEVOIX     CLOUDY    19  12  74 E7        30.09R WCI  10
FRANKFORT      CLOUDY    20  12  71 E6        30.02R WCI  12
GAYLORD        CLOUDY    15  12  88 NE6       30.00R WCI   6
GRAYLING       CLOUDY    16  11  82 NE5       30.00S WCI   8
HARBOR SPRINGS CLOUDY    18  12  76 NE6       30.06S WCI  10
HOUGHTON LAKE  CLOUDY    15   9  76 NE3       29.99R
MANISTEE       CLOUDY    19   9  63 E7        30.02S WCI  10
OSCODA         MOCLDY    11   4  75 CALM      30.03R
PELLSTON       CLOUDY    18  11  74 NE3       30.08R
ROGERS CITY    LGT SNOW  19  17  91 E10       30.08R WCI   8
TRAVERSE CITY  CLOUDY    20  11  68 CALM      30.03S
$$
MIZ007>008-015-270800-
EASTERN UPPER MICHIGAN

CITY           SKY/WX    TMP DP  RH WIND       PRES   REMARKS
KINROSS        MOCLDY    10   3  72 E8        30.09S WCI  -1
MACKINAC ISLAN CLOUDY    16  10  78 E14       30.08R WCI   2
NEWBERRY       MOCLDY     9   4  79 E6        30.07S WCI  -1
S. S. MARIE    MOCLDY    10  -3  55 E5        30.11S WCI   2
MUNISING         N/A     19  12  74 SW5       30.06R WCI  12
$$
MIZ004>006-011>014-085-270800-
CENTRAL UPPER MICHIGAN

CITY           SKY/WX    TMP DP  RH WIND       PRES   REMARKS
MANISTIQUE     LGT SNOW  17  14  88 E7        30.06R WCI   8
ESCANABA       CLOUDY    19  18  93 NE7       30.02S WCI  10
MENOMINEE      PTCLDY    21  18  86 E6        30.00S WCI  14
SAWYER-GWINN   CLOUDY    16  14  89 E3        30.00R
$$
MIZ001>003-009>011-084-270800-
WESTERN UPPER MICHIGAN

CITY           SKY/WX    TMP DP  RH WIND       PRES   REMARKS
IRON MOUNTAIN  LGT SNOW  19  16  88 E6        29.98R FOG     WCI  11
HOUGHTON       CLOUDY    20  17  88 E5        30.00R WCI  13
COPPER HARBOR    N/A     24  17  74 SW9       30.03R WCI  14
IRONWOOD       CLOUDY    21  19  93 CALM      29.94R
$$

ABBREVIATIONS USED IN REMARKS
   TC - TEMPERATURE IN CELSIUS
  WCI - WIND CHILL INDEX
   HX - HEAT INDEX
  VSB - VISIBILITY



USA.gov is the U.S. government's official web portal to all federal, state and local government web resources and services.